Regional Weather Roundup
Issued by NWS

Home | Current Version | Previous Version | Graphics & Text | Print | Product List | Glossary On
Versions: 1 2 3 4 5 6 7 8 9 10 11 12 13 14 15 16 17 18 19 20 21 22 23 24 25 26 27 28 29 30 31 32 33 34 35 36 37 38 39 40 41 42 43 44 45 46 47 48 49 50
000
ASUS44 KMEG 181910
RWRTN
TENNESSEE HOURLY STATE WEATHER ROUNDUP
NATIONAL WEATHER SERVICE MEMPHIS TN
100 PM CST THU DEC 18 2014

TNZ002-004-019-021-049-052-054-088>092-182000-
WEST TENNESSEE

CITY           SKY/WX    TMP DP  RH WIND       PRES   REMARKS
MEMPHIS INTL   CLOUDY    45  35  68 CALM      30.20F
NWS MEMPHIS      N/A     44 N/A N/A MISG        N/A
JACKSON        CLOUDY    43  36  76 NE3       30.20F
DYERSBURG      CLOUDY    39  27  60 NE3       30.23F
UNION CITY     CLOUDY    36  34  93 E6        30.21F WCI  31
PARIS          CLOUDY    36  30  80 NE5       30.22F WCI  32
HUNTINGDON     CLOUDY    37  32  82 NE5       30.22F WCI  33
LEXINGTON      CLOUDY    39  34  81 NE6       30.18F WCI  35
SAVANNAH       CLOUDY    43  36  75 CALM      30.20F
$$

TNZ008-025-027-028-033-062-065-066-182000-
NORTH MIDDLE TENNESSEE

CITY           SKY/WX    TMP DP  RH WIND       PRES   REMARKS
NASHVILLE      CLOUDY    37  33  85 N7        30.22F WCI  32
CLARKSVILLE    CLOUDY    36  31  82 NE5       30.23F WCI  32
SMYRNA         CLOUDY    37  33  85 N8        30.23F WCI  31
COOKEVILLE     CLOUDY    37  34  87 N5        30.17F WCI  34
CROSSVILLE     CLOUDY    42  32  67 W7        30.14F
$$

TNZ061-075-076-078-094-096-097-182000-
SOUTH MIDDLE TENNESSEE

CITY           SKY/WX    TMP DP  RH WIND       PRES   REMARKS
FAYETTEVILLE   CLOUDY    39  34  81 N5        30.16F
TULLAHOMA      PTSUNNY   41  34  75 NW7       30.17F
WINCHESTER     PTSUNNY   43  36  75 N3        30.17F
MCMINNVILLE    PTSUNNY   41  36  81 CALM      30.15F
SHELBYVILLE    CLOUDY    39  36  87 N7        30.19F WCI  34
$$

TNZ017-018-042-046-047-182000-
NORTHEAST TENNESSEE

CITY           SKY/WX    TMP DP  RH WIND       PRES   REMARKS
TRI CITIES     CLOUDY    41  29  62 CALM      30.12F
ELIZABETHTON   CLOUDY    43  25  49 SW10      30.09F
$$

TNZ012-013-036-069-073-074-182000-
CENTRAL EAST TENNESSEE

CITY           SKY/WX    TMP DP  RH WIND       PRES   REMARKS
KNOXVILLE      CLOUDY    43  29  57 CALM      30.14F
OAK RIDGE      CLOUDY    44  28  53 CALM      30.15F
GATLINBURG     CLOUDY    43  30  61 W5        30.13F
MORRISTOWN     MOCLDY    43  28  56 W5        30.13F
$$

TNZ083-085-099-182000-
SOUTHEAST TENNESSEE

CITY           SKY/WX    TMP DP  RH WIND       PRES   REMARKS
CHATTANOOGA    PTSUNNY   45  34  65 CALM      30.16F
$$

SKY/WX REPORTED AS FAIR MEANS FEW OR NO CLOUDS BELOW
12 THOUSAND FEET.




USA.gov is the U.S. government's official web portal to all federal, state and local government web resources and services.